TECHNOSAT (42829 NORAD) Tracking and Keplerian Element Data

This shows tracking and keplerian element data for the satellite.

Feedback or suggestion? Click here.




ElementValue
Catalog42829
NameTECHNOSAT
Epoch Orbit9122
Epoch Day77.66735159
Epoch Year2019
RAAN334.3185
Inclination97.5748
Eccentricity0.0014574
Argument of Perigee12.4929
Mean Anonmoly347.6648
Mean Motion14.90935463
Decay Rate2.09E-06
L11 42829U 17042E 19077.66735159 .00000209 00000-0 26517-4 0 9991
L22 42829 97.5748 334.3185 0014574 12.4929 347.6648 14.90935463 91228

Live tracking and technical data element details for TECHNOSAT (NORAD 42829). TECHNOSAT can be tracked NOW for your location showing map with azimuth and elevation plus other details from your city location.

Track the satellite on the map from your city or location and see movement details for azimuth, elevation, latitude, longitude, range, height, and movement on the map or in text.







IsCatalogInMostPopularTable: catalog: 42829, numindb: 263
Update: records affected: 1



GetName: 42829 TECHNOSAT

Hit Count: updated at: Wed, 20 Mar 2019 04:46:31 GMT